Weather History for Phoenix-Mesa Gateway Airport, AZ

Change the Weather History Date:

Sunday, August 17, 2014

  Actual Average Record
Temperature  
Mean Temperature 93 °F -  
Max Temperature 104 °F 100 °F 107 °F (1999)
Min Temperature 82 °F 78 °F 60 °F (2006)
Cooling Degree Days 28    
Growing Degree Days 43 (Base 50)    
Moisture  
Dew Point 59 °F    
Average Humidity 36    
Maximum Humidity 48    
Minimum Humidity 17    
Precipitation  
Precipitation 0.00 in - - ()
Sea Level Pressure  
Sea Level Pressure 29.90 in    
Wind  
Wind Speed 8 mph (SE)    
Max Wind Speed 26 mph    
Max Gust Speed 40 mph    
Visibility 10 miles    
Events Rain , Thunderstorm    
Averages and records for this station are not official NWS values.
T = Trace of Precipitation, MM = Missing Value Source: NWS Daily Summary

Daily Weather History Graph

Daily Weather History Graph

Search for Another Location

Airport:

Trip Planner

Search our weather history database for the weather conditions in past years. The results will help you decide how hot, cold, wet, or windy it might be!

Date:

Astronomy

Aug. 17, 2014 Rise Set
Actual Time 5:50 AM MST 7:10 PM MST
Civil Twilight 5:24 AM MST 7:36 PM MST
Nautical Twilight 4:53 AM MST 8:07 PM MST
Astronomical Twilight 4:21 AM MST 8:39 PM MST
Moon No Moon Rise 1:15 PM MST (8/17)
Length of Visible Light 14h 11m
Length of Day
13h 19m
Waning Gibbous, 47% of the Moon is Illuminated
Aug 17
Waning Gibbous
Aug 25
New
Sep 2
First Quarter
Sep 8
Full
Sep 15
Last Quarter

Hourly Weather History & Observations

Time (MST) Temp. Heat Index Dew Point Humidity Pressure Visibility Wind Dir Wind Speed Gust Speed Precip Events Conditions
12:15 AM 89.6 °F 89.5 °F 60.8 °F 38% 29.90 in 5.0 mi East 3.5 mph - N/A   Haze
12:35 AM 89.6 °F 88.9 °F 59.0 °F 36% 29.91 in 10.0 mi ESE 4.6 mph - N/A   Scattered Clouds
12:55 AM 93.2 °F 93.3 °F 60.8 °F 34% 29.91 in 7.0 mi SE 3.5 mph - N/A   Scattered Clouds
1:15 AM 89.6 °F 89.5 °F 60.8 °F 38% 29.91 in 10.0 mi SE 6.9 mph - N/A   Clear
1:35 AM 89.6 °F 89.5 °F 60.8 °F 38% 29.91 in 10.0 mi SE 4.6 mph - N/A   Clear
1:55 AM 87.8 °F 87.1 °F 59.0 °F 38% 29.91 in 10.0 mi SE 8.1 mph - N/A   Clear
2:15 AM 86.0 °F 86.1 °F 60.8 °F 43% 29.91 in 10.0 mi SSE 10.4 mph - N/A   Clear
2:35 AM 87.8 °F 87.6 °F 60.8 °F 40% 29.92 in 10.0 mi SSE 6.9 mph - N/A   Clear
2:55 AM 86.0 °F 86.1 °F 60.8 °F 43% 29.93 in 10.0 mi SE 5.8 mph - N/A   Clear
3:15 AM 84.2 °F 84.4 °F 60.8 °F 45% 29.93 in 10.0 mi SE 10.4 mph - N/A   Clear
3:35 AM 84.2 °F 84.4 °F 60.8 °F 45% 29.93 in 10.0 mi SE 8.1 mph - N/A   Clear
3:55 AM 82.4 °F 82.9 °F 60.8 °F 48% 29.93 in 10.0 mi ESE 8.1 mph - N/A   Clear
4:15 AM 84.2 °F 84.4 °F 60.8 °F 45% 29.93 in 10.0 mi ESE 8.1 mph - N/A   Clear
4:35 AM 84.2 °F 84.4 °F 60.8 °F 45% 29.93 in 10.0 mi ESE 8.1 mph - N/A   Clear
4:47 AM 84.2 °F 85.0 °F 62.6 °F 48% 29.93 in 20.0 mi ESE 6.9 mph - N/A   Partly Cloudy
6:53 AM 84.2 °F 85.0 °F 62.6 °F 48% 29.97 in 45.0 mi ESE 9.2 mph - N/A   Partly Cloudy
7:49 AM 86.0 °F 86.1 °F 60.8 °F 43% 29.98 in 45.0 mi SE 11.5 mph - N/A   Partly Cloudy
8:47 AM 87.8 °F 87.6 °F 60.8 °F 40% 29.98 in 45.0 mi ESE 8.1 mph - N/A   Partly Cloudy
9:47 AM 93.2 °F 94.1 °F 62.6 °F 36% 29.98 in 45.0 mi East 4.6 mph - N/A   Partly Cloudy
10:47 AM 93.2 °F 93.3 °F 60.8 °F 34% 29.96 in 45.0 mi WNW 5.8 mph - N/A   Partly Cloudy
11:47 AM 98.6 °F 100.0 °F 62.6 °F 30% 29.94 in 45.0 mi WSW 4.6 mph - N/A   Partly Cloudy
12:47 PM 98.6 °F 99.4 °F 60.8 °F 29% 29.92 in 45.0 mi West 4.6 mph - N/A   Partly Cloudy
1:47 PM 100.4 °F 101.3 °F 60.8 °F 27% 29.88 in 45.0 mi SW 5.8 mph - N/A   Partly Cloudy
2:47 PM 102.2 °F 101.4 °F 57.2 °F 22% 29.85 in 45.0 mi West 6.9 mph - N/A   Partly Cloudy
3:47 PM 104.0 °F 102.9 °F 55.4 °F 20% 29.81 in 45.0 mi WNW 17.3 mph - N/A   Partly Cloudy
4:47 PM 104.0 °F 103.4 °F 57.2 °F 21% 29.78 in 45.0 mi WNW 8.1 mph - N/A   Scattered Clouds
5:47 PM 104.0 °F 103.4 °F 57.2 °F 21% 29.79 in 45.0 mi NW 6.9 mph - N/A   Scattered Clouds
6:23 PM 104.0 °F - 51.8 °F 17% 29.81 in 6.0 mi East 17.3 mph 28.8 mph N/A   Mostly Cloudy
6:40 PM 96.8 °F - 51.8 °F 22% 29.85 in 0.5 mi East 17.3 mph 28.8 mph N/A   Mostly Cloudy
6:52 PM 93.2 °F 90.8 °F 53.6 °F 26% 29.85 in 0.2 mi ESE 21.9 mph 36.8 mph N/A   Mostly Cloudy
7:05 PM 93.2 °F 90.8 °F 53.6 °F 26% 29.87 in 2.0 mi ENE 26.5 mph 40.3 mph N/A Thunderstorm Thunderstorm
7:15 PM 89.6 °F 88.1 °F 57.2 °F 33% 29.89 in 3.0 mi NE 23.0 mph 32.2 mph N/A Rain , Thunderstorm Light Thunderstorms and Rain
7:47 PM 86.0 °F 84.5 °F 55.4 °F 35% 29.89 in 6.0 mi East 11.5 mph 31.1 mph N/A Rain , Thunderstorm Light Thunderstorms and Rain
8:37 PM 84.2 °F 85.0 °F 62.6 °F 48% 29.88 in 20.0 mi WNW 3.5 mph - N/A   Mostly Cloudy
9:47 PM 86.0 °F 86.1 °F 60.8 °F 43% 29.87 in 20.0 mi NW 3.5 mph - N/A   Mostly Cloudy
10:48 PM 86.0 °F 86.6 °F 62.6 °F 45% 29.90 in 20.0 mi East 10.4 mph - N/A   Mostly Cloudy
11:47 PM 84.2 °F 84.4 °F 60.8 °F 45% 29.90 in 20.0 mi ESE 11.5 mph - N/A   Scattered Clouds